This demonstration page uses our WeatherBlox Daily Observations layout. Learn more.

Hourly Observations for October 2, 2018

Temp ( °F °C ) Dew Point ( °F °C ) Humidity (%) Winds ( mph kmh ) Pressure ( in mb ) Visibility ( mi km ) Precip ( " mm )
12:15 am 00:15 Cloudy 49 9.6 49 9.6 100 100 ESE 8 13 30.15 1021 10 16.09344 0 0
12:35 am 00:35 Cloudy 49 9.5 49 9.5 100 100 ESE 6 9 30.15 1021 10 16.09344 0 0
12:55 am 00:55 Cloudy 49 9.6 49 9.6 100 100 E 8 13 30.15 1021 7 11.265408 0 0
1:15 am 01:15 Cloudy 49 9.6 49 9.6 100 100 ESE 6 9 30.15 1021 7 11.265408 0 0
1:35 am 01:35 Cloudy 49 9.7 49 9.7 100 100 ESE 7 11 30.15 1021 10 16.09344 0 0
1:55 am 01:55 Cloudy 49 9.5 49 9.5 100 100 ESE 7 11 30.15 1021 7 11.265408 0 0
2:15 am 02:15 Cloudy with Mist and Fog 49 9.5 49 9.5 100 100 ESE 7 11 30.12 1020 3 4.828032 0 0
2:35 am 02:35 Cloudy with Mist and Fog 49 9.5 49 9.5 100 100 ESE 7 11 30.12 1020 4 6.437376 0 0
2:55 am 02:55 Cloudy with Mist and Fog 49 9.5 49 9.5 100 100 SE 9 15 30.12 1020 5 8.04672 0 0
3:15 am 03:15 Cloudy with Mist and Fog 49 9.5 49 9.5 100 100 SE 7 11 30.12 1020 4 6.437376 0 0
3:35 am 03:35 Cloudy with Mist and Fog 49 9.5 49 9.5 100 100 SE 8 13 30.12 1020 4 6.437376 0 0
3:55 am 03:55 Cloudy with Mist and Fog 49 9.5 49 9.5 100 100 SE 9 15 30.09 1019 4 6.437376 0 0
4:15 am 04:15 Cloudy 49 9.6 49 9.6 100 100 SSE 8 13 30.09 1019 7 11.265408 0 0
4:35 am 04:35 Cloudy 50 9.8 50 9.8 100 100 SSE 8 13 30.06 1018 10 16.09344 0 0
4:55 am 04:55 Cloudy 50 10 50 10 100 100 SSE 6 9 30.06 1018 10 16.09344 0 0
5:15 am 05:15 Cloudy 50 10 50 10 100 100 SSE 8 13 30.06 1018 10 16.09344 0 0
5:35 am 05:35 Cloudy 50 10 50 10 100 100 SE 6 9 30.06 1018 10 16.09344 0 0
5:55 am 05:55 Cloudy 50 10 50 10 100 100 SE 6 9 30.06 1018 10 16.09344 0 0
6:15 am 06:15 Cloudy 50 10 50 10 100 100 SE 5 7 30.06 1018 10 16.09344 0 0
6:35 am 06:35 Cloudy 50 9.8 50 9.8 100 100 SE 7 11 30.06 1018 7 11.265408 0 0
6:55 am 06:55 Cloudy 50 10 50 10 100 100 ESE 3 6 30.06 1018 7 11.265408 0 0
7:15 am 07:15 Cloudy 50 10 50 10 100 100 ESE 3 6 30.06 1018 7 11.265408 0 0
7:35 am 07:35 Cloudy 50 10 50 10 100 100 ESE 3 6 30.06 1018 7 11.265408 0 0
7:55 am 07:55 Cloudy 50 10.1 50 10.1 100 100 E 3 6 30.06 1018 7 11.265408 0 0
8:15 am 08:15 Cloudy 50 10.1 50 10.1 100 100 E 3 6 30.06 1018 7 11.265408 0 0
8:35 am 08:35 Cloudy with Mist and Fog 50 10.1 50 10.1 100 100 ESE 6 9 30.06 1018 1.25 2.01168 0 0
8:55 am 08:55 Cloudy with Mist and Fog 50 10.2 50 10.2 100 100 ESE 6 9 30.06 1018 1 1.609344 0 0
9:15 am 09:15 Cloudy with Mist and Fog 51 10.4 51 10.4 100 100 ESE 6 9 30.06 1018 1 1.609344 0 0
9:35 am 09:35 Cloudy with Fog 51 10.6 51 10.6 100 100 SE 8 13 30.06 1018 0.5 0.804672 0 0
9:55 am 09:55 Cloudy with Fog 51 10.8 51 10.8 100 100 ESE 7 11 30.06 1018 0.25 0.402336 0 0
10:15 am 10:15 Cloudy with Fog 52 10.9 52 10.9 100 100 SE 6 9 30.06 1018 0.25 0.402336 0 0
10:35 am 10:35 Cloudy with Fog 52 11 52 11 100 100 SE 5 7 30.06 1018 0.5 0.804672 0 0
10:55 am 10:55 Cloudy with Fog 52 11.3 52 11.3 100 100 SSE 6 9 30.03 1017 0.5 0.804672 0 0
11:15 am 11:15 Cloudy with Fog 53 11.6 53 11.6 100 100 SE 7 11 30.03 1017 0.5 0.804672 0 0
11:35 am 11:35 Cloudy with Mist and Fog 53 11.8 53 11.8 100 100 SE 8 13 30.03 1017 1 1.609344 0 0
11:55 am 11:55 Cloudy with Mist and Fog 54 12.1 54 12.1 100 100 SSE 6 9 30.03 1017 1.5 2.414016 0 0
12:15 pm 12:15 Cloudy with Mist and Fog 55 12.6 55 12.6 100 100 SSE 6 9 29.97 1015 4 6.437376 0 0
12:35 pm 12:35 Cloudy 56 13.5 56 13.4 99 99 S 5 7 29.97 1015 7 11.265408 0 0
12:55 pm 12:55 Cloudy 57 14.1 56 13.4 96 96 S 6 9 29.97 1015 10 16.09344 0 0
1:15 pm 13:15 Cloudy 57 13.7 56 13.1 96 96 S 8 13 29.97 1015 10 16.09344 0 0
1:35 pm 13:35 Cloudy 57 13.7 56 13.2 97 97 S 7 11 29.97 1015 10 16.09344 0 0
1:55 pm 13:55 Cloudy 57 13.7 56 13.2 97 97 S 8 13 29.94 1014 10 16.09344 0 0
2:15 pm 14:15 Cloudy 57 13.7 56 13.3 97 97 S 8 13 29.94 1014 10 16.09344 0 0
2:35 pm 14:35 Cloudy 58 14.4 57 13.8 96 96 S 9 15 29.94 1014 10 16.09344 0 0
2:55 pm 14:55 Cloudy 59 15 57 14 94 94 S 8 13 29.91 1013 10 16.09344 0 0
3:15 pm 15:15 Cloudy 59 15.1 57 14 93 93 SSW 10 17 29.91 1013 10 16.09344 0 0
3:35 pm 15:35 Cloudy 60 15.8 58 14.2 90 90 SSW 8 13 29.88 1012 10 16.09344 0 0
3:55 pm 15:55 Partly Cloudy 62 16.5 58 14.5 88 88 SW 5 7 29.85 1011 10 16.09344 0 0
4:15 pm 16:15 Sunny 64 17.5 58 14.7 84 84 SSW 5 7 29.85 1011 10 16.09344 0 0
4:35 pm 16:35 Sunny 65 18.6 59 15 80 80 S 5 7 29.83 1010 10 16.09344 0 0
4:55 pm 16:55 Sunny 66 19 59 15.1 78 78 S 3 6 29.8 1009 10 16.09344 0 0
5:15 pm 17:15 Partly Cloudy 67 19.2 60 15.6 80 80 SSE 3 6 29.8 1009 10 16.09344 0 0
5:35 pm 17:35 Partly Cloudy 68 20 60 15.7 76 76 Calm 29.8 1009 10 16.09344 0 0
5:55 pm 17:55 Sunny 68 20 61 16 78 78 SE 5 7 29.77 1008 10 16.09344 0 0
6:15 pm 18:15 Sunny 69 20.3 61 16.2 77 77 SSE 5 7 29.77 1008 10 16.09344 0 0
6:35 pm 18:35 Sunny 68 20.2 61 16.2 78 78 SE 5 7 29.77 1008 10 16.09344 0 0
6:55 pm 18:55 Sunny 67 19.6 61 16.1 80 80 SE 3 6 29.77 1008 10 16.09344 0 0
7:15 pm 19:15 Sunny 65 18.6 61 16 85 85 Calm 29.77 1008 10 16.09344 0 0
7:35 pm 19:35 Clear 62 16.8 59 15.2 90 90 Calm 29.8 1009 7 11.265408 0 0
7:55 pm 19:55 Clear 61 16.2 59 15 93 93 ENE 5 7 29.8 1009 10 16.09344 0 0
8:15 pm 20:15 Clear 61 16.2 60 15.4 95 95 E 5 7 29.8 1009 10 16.09344 0 0
8:35 pm 20:35 Clear 62 16.5 60 15.5 94 94 ENE 6 9 29.77 1008 10 16.09344 0 0
8:55 pm 20:55 Clear 62 16.5 60 15.7 95 95 E 5 7 29.77 1008 10 16.09344 0 0
9:15 pm 21:15 Clear 62 16.7 60 15.7 94 94 E 3 6 29.77 1008 10 16.09344 0 0
9:35 pm 21:35 Clear 62 16.5 60 15.6 94 94 E 3 6 29.77 1008 10 16.09344 0 0
9:55 pm 21:55 Clear 62 16.5 60 15.6 94 94 ESE 5 7 29.77 1008 10 16.09344 0 0
10:15 pm 22:15 Clear 62 16.4 60 15.7 96 96 E 6 9 29.77 1008 10 16.09344 0 0
10:35 pm 22:35 Clear 61 16.2 60 15.7 97 97 ESE 6 9 29.77 1008 10 16.09344 0 0
10:55 pm 22:55 Clear 60 15.5 59 15.1 97 97 SE 6 9 29.74 1007 10 16.09344 0 0
11:15 pm 23:15 Clear with Nearby Thunderstorms 59 15.1 59 15 99 99 SE 5 7 29.74 1007 10 16.09344 0 0
11:35 pm 23:35 Clear 60 15.3 59 15.1 99 99 SSE 5 7 29.74 1007 10 16.09344 0 0
11:55 pm 23:55 Mostly Cloudy 64 17.8 61 16.2 90 90 SSE 7 11 29.71 1006 10 16.09344 0 0

Powered by AerisWeather